GFSNE_prec_precacc24_105.txt.gz
Total_Precipitation_Accumulation
0.27 0.21 0.13 0.07 0.03 0.03 0.03 0.02 0.06 0.04 0.02 0.00 0.00 0.00 0.00 0.00 0.00 0.00 0.00 0.00 0.00 0.00 0.00 0.00 0.00 0.00 0.00 0.00 0.00 0.00 0.01 0.02 0.03 0.05 0.06 0.07 0.07 0.08
0.23 0.21 0.13 0.07 0.04 0.03 0.05 0.06 0.08 0.11 0.07 0.00 0.00 0.00 0.02 0.03 0.03 0.01 0.00 0.00 0.00 0.00 0.00 0.00 0.00 0.00 0.01 0.01 0.03 0.05 0.06 0.08 0.10 0.10 0.11 0.10 0.09 0.09
0.10 0.10 0.07 0.04 0.05 0.04 0.04 0.06 0.06 0.07 0.09 0.03 0.00 0.00 0.01 0.01 0.01 0.01 0.00 0.00 0.00 0.02 0.04 0.04 0.05 0.05 0.05 0.06 0.07 0.08 0.09 0.09 0.09 0.08 0.07 0.07 0.07 0.06
0.05 0.05 0.03 0.02 0.01 0.02 0.02 0.03 0.03 0.02 0.07 0.07 0.02 0.02 0.02 0.02 0.02 0.02 0.00 0.01 0.01 0.04 0.07 0.07 0.08 0.09 0.09 0.09 0.09 0.08 0.07 0.06 0.05 0.04 0.04 0.04 0.04 0.06
0.08 0.07 0.06 0.04 0.02 0.02 0.01 0.01 0.01 0.02 0.02 0.02 0.01 0.02 0.02 0.01 0.02 0.01 0.01 0.01 0.00 0.03 0.04 0.07 0.08 0.11 0.15 0.16 0.15 0.13 0.12 0.11 0.10 0.09 0.08 0.06 0.07 0.08
0.02 0.02 0.07 0.09 0.05 0.04 0.05 0.03 0.04 0.06 0.07 0.07 0.02 0.03 0.04 0.02 0.06 0.04 0.05 0.04 0.05 0.06 0.08 0.10 0.14 0.15 0.16 0.16 0.17 0.15 0.14 0.12 0.11 0.11 0.12 0.13 0.15 0.15
0.04 0.05 0.04 0.02 0.04 0.01 0.02 0.05 0.11 0.12 0.12 0.13 0.10 0.08 0.07 0.05 0.07 0.10 0.15 0.12 0.20 0.25 0.26 0.26 0.28 0.28 0.29 0.35 0.30 0.25 0.22 0.23 0.23 0.21 0.22 0.20 0.25 0.28
0.06 0.06 0.05 0.04 0.01 0.00 0.00 0.00 0.02 0.05 0.06 0.07 0.08 0.08 0.04 0.06 0.07 0.11 0.15 0.19 0.22 0.21 0.21 0.24 0.25 0.29 0.33 0.34 0.41 0.40 0.35 0.31 0.29 0.26 0.24 0.24 0.26 0.29
0.07 0.08 0.11 0.08 0.07 0.01 0.02 0.03 0.02 0.07 0.12 0.13 0.07 0.08 0.18 0.31 0.34 0.33 0.36 0.45 0.45 0.37 0.32 0.36 0.45 0.51 0.49 0.50 0.59 0.32 0.25 0.23 0.24 0.24 0.23 0.21 0.22 0.24
0.14 0.12 0.10 0.08 0.15 0.14 0.06 0.08 0.12 0.21 0.33 0.47 0.69 0.83 0.91 0.76 0.67 0.63 0.57 0.56 0.58 0.64 0.59 0.61 0.58 0.56 0.54 0.51 0.81 0.46 0.29 0.27 0.27 0.29 0.29 0.31 0.33 0.37
0.22 0.28 0.27 0.14 0.29 0.19 0.10 0.14 0.19 0.29 0.53 0.52 0.57 0.56 0.55 0.49 0.46 0.45 0.61 0.78 0.87 0.84 0.77 0.69 0.66 0.66 0.64 0.60 0.67 0.70 0.42 0.33 0.33 0.36 0.43 0.49 0.55 0.59
0.30 0.34 0.60 0.43 0.44 0.41 0.40 0.43 0.50 0.56 0.58 0.57 0.60 0.58 0.50 0.49 0.62 0.48 0.49 0.79 1.17 1.18 1.02 0.82 0.76 0.77 0.82 0.84 0.75 0.68 0.59 0.51 0.44 0.40 0.38 0.38 0.38 0.36
0.47 0.45 0.47 0.68 0.46 0.46 0.50 0.47 0.81 0.90 0.91 0.70 0.62 0.67 0.61 0.54 0.51 0.51 0.51 0.63 0.86 1.08 1.19 1.14 1.13 1.10 1.03 0.94 0.79 0.65 0.55 0.47 0.39 0.32 0.26 0.21 0.18 0.17
0.41 0.46 0.49 0.56 0.39 0.40 0.47 0.75 0.99 0.86 0.71 0.74 0.77 0.82 0.83 0.84 0.84 0.78 0.72 0.70 0.74 0.83 0.86 0.82 0.80 0.79 0.73 0.68 0.60 0.51 0.44 0.37 0.31 0.26 0.20 0.14 0.09 0.05
0.34 0.50 0.48 0.35 0.29 0.38 0.60 0.74 0.82 0.89 1.11 1.30 1.42 1.45 1.36 1.25 1.07 0.91 0.78 0.67 0.60 0.58 0.56 0.53 0.53 0.53 0.49 0.47 0.41 0.34 0.27 0.19 0.12 0.08 0.04 0.01 0.00 0.00
0.49 0.59 0.65 0.65 0.67 0.77 0.93 0.97 0.99 1.11 1.21 1.29 1.29 1.23 1.09 0.94 0.83 0.75 0.66 0.59 0.49 0.44 0.34 0.25 0.21 0.19 0.18 0.15 0.12 0.09 0.04 0.03 0.01 0.00 0.00 0.00 0.00 0.00
0.63 0.75 0.86 0.90 0.92 0.96 1.00 1.03 1.04 1.02 1.00 0.99 0.93 0.88 0.79 0.68 0.59 0.47 0.37 0.28 0.21 0.15 0.08 0.03 0.02 0.01 0.01 0.01 0.01 0.01 0.00 0.00 0.00 0.00 0.00 0.00 0.00 0.00
0.54 0.61 0.68 0.73 0.72 0.70 0.67 0.64 0.59 0.55 0.51 0.45 0.39 0.33 0.28 0.22 0.16 0.11 0.07 0.05 0.04 0.02 0.01 0.00 0.00 0.00 0.00 0.00 0.00 0.00 0.00 0.00 0.00 0.00 0.00 0.00 0.00 0.00
0.34 0.38 0.41 0.44 0.43 0.39 0.36 0.33 0.31 0.29 0.24 0.19 0.15 0.12 0.07 0.04 0.02 0.02 0.01 0.01 0.00 0.00 0.00 0.00 0.00 0.00 0.00 0.00 0.00 0.00 0.00 0.00 0.00 0.00 0.00 0.00 0.00 0.00
0.24 0.24 0.23 0.21 0.19 0.17 0.16 0.14 0.13 0.10 0.06 0.03 0.01 0.00 0.00 0.00 0.00 0.00 0.00 0.00 0.00 0.00 0.00 0.00 0.00 0.00 0.00 0.00 0.00 0.00 0.00 0.00 0.00 0.00 0.00 0.00 0.00 0.00
0.13 0.13 0.13 0.12 0.11 0.10 0.08 0.05 0.03 0.01 0.00 0.00 0.00 0.00 0.00 0.00 0.00 0.00 0.00 0.00 0.00 0.00 0.00 0.00 0.00 0.00 0.00 0.00 0.00 0.00 0.00 0.00 0.00 0.00 0.00 0.01 0.00 0.00
0.09 0.08 0.08 0.06 0.04 0.03 0.01 0.01 0.01 0.00 0.00 0.00 0.00 0.00 0.00 0.00 0.00 0.00 0.00 0.00 0.00 0.00 0.00 0.00 0.00 0.00 0.00 0.00 0.00 0.00 0.00 0.00 0.00 0.00 0.00 0.02 0.06 0.08
0.03 0.01 0.00 0.00 0.00 0.00 0.00 0.00 0.00 0.00 0.00 0.00 0.00 0.00 0.00 0.00 0.00 0.00 0.00 0.00 0.00 0.00 0.00 0.00 0.00 0.00 0.00 0.00 0.00 0.00 0.00 0.00 0.00 0.00 0.00 0.00 0.01 0.02

GFSNE_prec_precacc24_108.txt.gz
Total_Precipitation_Accumulation
0.40 0.35 0.29 0.16 0.09 0.07 0.04 0.02 0.05 0.05 0.02 0.00 0.00 0.00 0.00 0.00 0.00 0.00 0.00 0.00 0.00 0.00 0.00 0.00 0.00 0.00 0.00 0.00 0.00 0.00 0.01 0.02 0.03 0.05 0.06 0.07 0.07 0.08
0.37 0.33 0.28 0.19 0.14 0.09 0.08 0.07 0.08 0.10 0.06 0.00 0.00 0.00 0.02 0.03 0.03 0.02 0.00 0.00 0.00 0.00 0.00 0.00 0.00 0.00 0.00 0.00 0.02 0.04 0.06 0.08 0.10 0.10 0.11 0.10 0.09 0.09
0.34 0.29 0.28 0.22 0.19 0.11 0.09 0.09 0.08 0.07 0.08 0.02 0.00 0.00 0.02 0.02 0.02 0.02 0.02 0.02 0.00 0.01 0.01 0.01 0.01 0.02 0.02 0.03 0.04 0.06 0.08 0.09 0.09 0.08 0.07 0.07 0.07 0.06
0.25 0.26 0.26 0.26 0.19 0.13 0.09 0.06 0.04 0.03 0.07 0.07 0.01 0.00 0.00 0.00 0.01 0.01 0.01 0.00 0.00 0.00 0.01 0.02 0.03 0.03 0.02 0.03 0.03 0.05 0.06 0.05 0.04 0.04 0.04 0.04 0.04 0.06
0.14 0.14 0.15 0.17 0.13 0.09 0.05 0.03 0.02 0.02 0.02 0.02 0.00 0.01 0.01 0.01 0.02 0.01 0.00 0.00 0.00 0.00 0.00 0.00 0.02 0.05 0.06 0.07 0.08 0.08 0.09 0.10 0.11 0.11 0.10 0.08 0.09 0.10
0.04 0.05 0.10 0.15 0.12 0.09 0.08 0.05 0.06 0.07 0.07 0.06 0.01 0.01 0.03 0.01 0.06 0.02 0.02 0.01 0.01 0.01 0.03 0.04 0.07 0.08 0.08 0.12 0.18 0.21 0.23 0.23 0.19 0.17 0.17 0.19 0.23 0.27
0.05 0.07 0.08 0.09 0.16 0.16 0.13 0.11 0.16 0.17 0.13 0.12 0.08 0.04 0.04 0.04 0.06 0.07 0.11 0.08 0.14 0.19 0.27 0.31 0.34 0.37 0.42 0.42 0.32 0.25 0.19 0.21 0.22 0.23 0.25 0.29 0.34 0.37
0.12 0.09 0.12 0.20 0.16 0.13 0.08 0.04 0.05 0.09 0.08 0.07 0.08 0.08 0.04 0.06 0.06 0.09 0.11 0.13 0.12 0.11 0.14 0.15 0.15 0.20 0.24 0.25 0.34 0.32 0.27 0.29 0.28 0.25 0.24 0.24 0.26 0.29
0.11 0.16 0.18 0.14 0.14 0.05 0.03 0.04 0.03 0.07 0.11 0.12 0.05 0.07 0.17 0.30 0.32 0.31 0.33 0.40 0.38 0.32 0.31 0.35 0.43 0.49 0.48 0.47 0.55 0.29 0.23 0.23 0.23 0.24 0.23 0.21 0.22 0.24
0.16 0.13 0.11 0.11 0.19 0.18 0.07 0.10 0.14 0.22 0.33 0.47 0.67 0.80 0.84 0.64 0.54 0.55 0.51 0.52 0.55 0.63 0.62 0.65 0.58 0.55 0.50 0.47 0.78 0.43 0.28 0.27 0.27 0.28 0.29 0.31 0.33 0.37
0.24 0.30 0.30 0.16 0.34 0.25 0.14 0.19 0.25 0.35 0.58 0.53 0.56 0.50 0.45 0.40 0.38 0.41 0.59 0.80 0.89 0.82 0.73 0.66 0.63 0.62 0.61 0.57 0.65 0.70 0.42 0.33 0.32 0.36 0.43 0.49 0.55 0.59
0.32 0.36 0.65 0.47 0.52 0.46 0.42 0.47 0.52 0.55 0.55 0.53 0.57 0.56 0.51 0.50 0.60 0.46 0.47 0.77 1.14 1.11 0.97 0.81 0.75 0.76 0.81 0.83 0.75 0.67 0.58 0.51 0.44 0.40 0.38 0.38 0.38 0.36
0.57 0.49 0.50 0.67 0.42 0.40 0.46 0.49 0.80 0.85 0.89 0.73 0.69 0.72 0.67 0.58 0.53 0.51 0.50 0.62 0.83 1.05 1.19 1.14 1.13 1.10 1.03 0.94 0.79 0.65 0.55 0.47 0.39 0.32 0.26 0.21 0.18 0.17
0.56 0.54 0.54 0.53 0.38 0.41 0.50 0.76 0.96 0.87 0.73 0.70 0.70 0.71 0.69 0.68 0.69 0.67 0.68 0.69 0.74 0.83 0.86 0.82 0.80 0.79 0.73 0.68 0.61 0.51 0.44 0.37 0.31 0.26 0.20 0.14 0.09 0.05
0.43 0.54 0.50 0.38 0.31 0.34 0.49 0.59 0.64 0.67 0.82 0.93 0.99 1.01 0.99 0.96 0.89 0.80 0.72 0.64 0.58 0.57 0.56 0.53 0.53 0.53 0.49 0.47 0.41 0.34 0.27 0.19 0.12 0.08 0.04 0.01 0.00 0.00
0.40 0.48 0.52 0.53 0.53 0.55 0.59 0.60 0.62 0.70 0.79 0.88 0.90 0.90 0.84 0.75 0.68 0.64 0.58 0.54 0.46 0.42 0.33 0.25 0.21 0.19 0.18 0.15 0.12 0.09 0.04 0.03 0.01 0.00 0.00 0.00 0.00 0.00
0.42 0.47 0.47 0.47 0.47 0.48 0.49 0.52 0.57 0.62 0.65 0.69 0.69 0.68 0.64 0.58 0.51 0.42 0.35 0.27 0.20 0.15 0.08 0.03 0.02 0.01 0.01 0.01 0.01 0.01 0.00 0.00 0.00 0.00 0.00 0.00 0.00 0.00
0.17 0.24 0.31 0.33 0.30 0.30 0.30 0.30 0.30 0.30 0.31 0.29 0.27 0.25 0.22 0.19 0.15 0.11 0.07 0.05 0.04 0.02 0.01 0.00 0.00 0.00 0.00 0.00 0.00 0.00 0.00 0.00 0.00 0.00 0.00 0.00 0.00 0.00
0.09 0.12 0.15 0.15 0.16 0.15 0.15 0.15 0.16 0.16 0.14 0.12 0.11 0.10 0.07 0.04 0.02 0.02 0.01 0.01 0.00 0.00 0.00 0.00 0.00 0.00 0.00 0.00 0.00 0.00 0.00 0.00 0.00 0.00 0.00 0.00 0.00 0.00
0.05 0.06 0.07 0.07 0.07 0.08 0.08 0.08 0.08 0.06 0.04 0.02 0.01 0.00 0.00 0.00 0.00 0.00 0.00 0.00 0.00 0.00 0.00 0.00 0.00 0.00 0.00 0.00 0.00 0.00 0.00 0.00 0.00 0.00 0.00 0.00 0.00 0.00
0.05 0.06 0.07 0.08 0.08 0.07 0.07 0.04 0.02 0.01 0.00 0.00 0.00 0.00 0.00 0.00 0.00 0.00 0.00 0.00 0.00 0.00 0.00 0.00 0.00 0.00 0.00 0.00 0.00 0.00 0.00 0.00 0.00 0.00 0.00 0.01 0.00 0.00
0.04 0.04 0.05 0.04 0.03 0.02 0.01 0.01 0.01 0.00 0.00 0.00 0.00 0.00 0.00 0.00 0.00 0.00 0.00 0.00 0.00 0.00 0.00 0.00 0.00 0.00 0.00 0.00 0.00 0.00 0.00 0.00 0.00 0.00 0.00 0.01 0.04 0.05
0.01 0.00 0.00 0.00 0.00 0.00 0.00 0.00 0.00 0.00 0.00 0.00 0.00 0.00 0.00 0.00 0.00 0.00 0.00 0.00 0.00 0.00 0.00 0.00 0.00 0.00 0.00 0.00 0.00 0.00 0.00 0.00 0.00 0.00 0.00 0.00 0.01 0.02

GFSNE_prec_precacc24_114.txt.gz
Total_Precipitation_Accumulation
0.68 0.79 0.71 0.48 0.31 0.24 0.16 0.08 0.09 0.11 0.04 0.02 0.01 0.00 0.00 0.00 0.00 0.00 0.00 0.00 0.00 0.00 0.00 0.00 0.00 0.00 0.00 0.00 0.00 0.00 0.00 0.00 0.00 0.00 0.01 0.05 0.05 0.13
0.46 0.47 0.48 0.42 0.35 0.28 0.25 0.19 0.17 0.15 0.09 0.02 0.02 0.01 0.02 0.03 0.03 0.02 0.00 0.00 0.00 0.00 0.00 0.00 0.00 0.00 0.00 0.00 0.00 0.00 0.00 0.00 0.00 0.00 0.00 0.00 0.01 0.03
0.41 0.54 0.54 0.35 0.33 0.28 0.27 0.23 0.16 0.13 0.11 0.06 0.02 0.02 0.03 0.03 0.03 0.03 0.02 0.02 0.01 0.02 0.02 0.02 0.01 0.01 0.01 0.01 0.00 0.00 0.00 0.00 0.00 0.00 0.00 0.01 0.01 0.01
0.28 0.39 0.62 0.64 0.52 0.40 0.35 0.27 0.19 0.17 0.20 0.16 0.07 0.03 0.01 0.01 0.02 0.02 0.01 0.01 0.02 0.04 0.05 0.04 0.04 0.03 0.01 0.00 0.00 0.00 0.00 0.00 0.00 0.00 0.00 0.00 0.01 0.02
0.18 0.23 0.35 0.50 0.64 0.54 0.40 0.31 0.26 0.24 0.22 0.20 0.12 0.08 0.04 0.02 0.03 0.01 0.01 0.02 0.03 0.03 0.02 0.00 0.00 0.01 0.01 0.01 0.00 0.00 0.01 0.04 0.10 0.15 0.16 0.17 0.18 0.18
0.08 0.20 0.24 0.30 0.40 0.45 0.47 0.38 0.36 0.35 0.28 0.24 0.17 0.12 0.08 0.04 0.09 0.04 0.04 0.04 0.04 0.02 0.03 0.03 0.05 0.05 0.05 0.08 0.13 0.15 0.18 0.21 0.21 0.20 0.19 0.19 0.21 0.25
0.05 0.11 0.19 0.24 0.31 0.35 0.46 0.45 0.45 0.42 0.36 0.31 0.21 0.14 0.09 0.08 0.09 0.09 0.14 0.14 0.22 0.23 0.28 0.31 0.34 0.35 0.38 0.37 0.27 0.21 0.18 0.20 0.20 0.19 0.20 0.24 0.30 0.33
0.15 0.11 0.14 0.32 0.38 0.39 0.37 0.37 0.43 0.47 0.38 0.28 0.24 0.21 0.13 0.15 0.14 0.16 0.14 0.15 0.14 0.11 0.13 0.17 0.19 0.21 0.19 0.13 0.15 0.11 0.12 0.17 0.19 0.19 0.19 0.19 0.23 0.27
0.16 0.23 0.26 0.21 0.24 0.20 0.37 0.37 0.32 0.41 0.44 0.36 0.30 0.23 0.30 0.41 0.44 0.42 0.41 0.43 0.37 0.28 0.27 0.32 0.42 0.47 0.44 0.40 0.41 0.14 0.09 0.12 0.16 0.17 0.18 0.19 0.20 0.23
0.21 0.21 0.20 0.18 0.30 0.29 0.18 0.28 0.38 0.46 0.58 0.68 0.80 0.89 0.90 0.69 0.59 0.56 0.50 0.49 0.51 0.58 0.59 0.65 0.61 0.57 0.51 0.45 0.67 0.30 0.17 0.18 0.20 0.23 0.26 0.29 0.32 0.36
0.25 0.33 0.37 0.23 0.46 0.36 0.22 0.31 0.43 0.52 0.78 0.76 0.78 0.68 0.55 0.44 0.37 0.37 0.52 0.64 0.70 0.70 0.70 0.68 0.63 0.58 0.50 0.42 0.47 0.54 0.30 0.23 0.24 0.30 0.38 0.46 0.53 0.58
0.30 0.37 0.69 0.49 0.63 0.53 0.45 0.49 0.57 0.64 0.65 0.60 0.63 0.60 0.51 0.45 0.49 0.37 0.37 0.58 0.84 0.84 0.73 0.65 0.63 0.66 0.69 0.65 0.53 0.47 0.40 0.35 0.30 0.28 0.28 0.31 0.34 0.34
0.59 0.48 0.49 0.62 0.44 0.43 0.43 0.40 0.57 0.60 0.68 0.59 0.60 0.64 0.57 0.48 0.44 0.43 0.39 0.46 0.60 0.75 0.85 0.82 0.79 0.78 0.72 0.67 0.55 0.42 0.34 0.30 0.25 0.20 0.17 0.16 0.16 0.16
0.65 0.71 0.76 0.63 0.40 0.34 0.32 0.44 0.55 0.53 0.44 0.41 0.40 0.43 0.47 0.48 0.47 0.44 0.41 0.41 0.44 0.49 0.54 0.55 0.56 0.56 0.49 0.44 0.37 0.30 0.26 0.23 0.20 0.18 0.15 0.11 0.08 0.05
0.67 0.63 0.62 0.61 0.55 0.46 0.41 0.35 0.31 0.28 0.29 0.31 0.34 0.35 0.29 0.27 0.26 0.22 0.20 0.18 0.17 0.17 0.19 0.20 0.22 0.25 0.24 0.24 0.22 0.19 0.16 0.11 0.07 0.05 0.03 0.01 0.00 0.00
0.43 0.39 0.34 0.31 0.31 0.35 0.34 0.31 0.29 0.26 0.23 0.21 0.20 0.20 0.17 0.15 0.13 0.11 0.09 0.09 0.07 0.07 0.08 0.08 0.08 0.08 0.08 0.07 0.07 0.05 0.02 0.01 0.00 0.00 0.00 0.00 0.00 0.00
0.26 0.25 0.23 0.20 0.16 0.14 0.13 0.14 0.15 0.14 0.14 0.15 0.12 0.09 0.07 0.05 0.04 0.04 0.04 0.03 0.03 0.03 0.02 0.01 0.01 0.01 0.01 0.01 0.01 0.00 0.00 0.00 0.00 0.00 0.00 0.00 0.00 0.00
0.07 0.10 0.12 0.13 0.13 0.14 0.13 0.11 0.09 0.09 0.09 0.07 0.06 0.06 0.05 0.05 0.04 0.03 0.03 0.03 0.03 0.02 0.02 0.01 0.00 0.00 0.00 0.00 0.00 0.00 0.00 0.00 0.00 0.00 0.00 0.00 0.00 0.00
0.00 0.01 0.01 0.01 0.02 0.01 0.01 0.01 0.01 0.01 0.01 0.01 0.01 0.01 0.00 0.00 0.00 0.00 0.00 0.00 0.00 0.00 0.00 0.00 0.00 0.00 0.00 0.00 0.00 0.00 0.00 0.00 0.00 0.00 0.00 0.00 0.00 0.00
0.00 0.01 0.01 0.00 0.00 0.00 0.00 0.00 0.00 0.00 0.00 0.00 0.00 0.00 0.00 0.00 0.00 0.00 0.00 0.00 0.00 0.00 0.00 0.00 0.00 0.00 0.00 0.00 0.00 0.00 0.00 0.00 0.00 0.00 0.00 0.00 0.00 0.00
0.00 0.00 0.00 0.00 0.00 0.00 0.00 0.00 0.00 0.00 0.00 0.00 0.00 0.00 0.00 0.00 0.00 0.00 0.00 0.00 0.00 0.00 0.00 0.00 0.00 0.00 0.00 0.00 0.00 0.00 0.00 0.00 0.00 0.00 0.00 0.00 0.00 0.00
0.00 0.00 0.00 0.00 0.00 0.00 0.00 0.00 0.00 0.00 0.00 0.00 0.00 0.00 0.00 0.00 0.00 0.00 0.00 0.00 0.00 0.00 0.00 0.00 0.00 0.00 0.00 0.00 0.00 0.00 0.00 0.00 0.00 0.00 0.00 0.01 0.03 0.03
0.01 0.00 0.00 0.00 0.00 0.00 0.00 0.00 0.00 0.00 0.00 0.00 0.00 0.00 0.00 0.00 0.00 0.00 0.00 0.00 0.00 0.00 0.00 0.00 0.00 0.00 0.00 0.00 0.00 0.00 0.00 0.00 0.00 0.00 0.00 0.00 0.00 0.01

GFSNE_prec_precacc24_117.txt.gz
Total_Precipitation_Accumulation
0.69 0.80 0.71 0.48 0.32 0.26 0.21 0.19 0.23 0.24 0.08 0.02 0.02 0.02 0.01 0.01 0.00 0.00 0.00 0.00 0.00 0.00 0.00 0.00 0.00 0.00 0.00 0.00 0.00 0.00 0.00 0.00 0.00 0.00 0.01 0.05 0.05 0.11
0.46 0.47 0.48 0.43 0.37 0.31 0.30 0.26 0.28 0.29 0.20 0.04 0.04 0.03 0.04 0.03 0.03 0.01 0.00 0.00 0.00 0.00 0.00 0.00 0.00 0.00 0.00 0.00 0.00 0.00 0.00 0.00 0.00 0.00 0.00 0.00 0.00 0.00
0.41 0.54 0.54 0.36 0.33 0.27 0.26 0.24 0.21 0.22 0.22 0.11 0.05 0.06 0.07 0.04 0.04 0.03 0.03 0.03 0.01 0.02 0.02 0.02 0.01 0.01 0.01 0.01 0.00 0.00 0.00 0.00 0.00 0.00 0.00 0.00 0.00 0.00
0.28 0.39 0.62 0.64 0.52 0.40 0.35 0.28 0.22 0.21 0.25 0.20 0.14 0.11 0.05 0.03 0.03 0.03 0.02 0.02 0.03 0.04 0.05 0.04 0.04 0.03 0.01 0.00 0.00 0.00 0.00 0.00 0.00 0.00 0.00 0.00 0.00 0.01
0.18 0.23 0.36 0.51 0.65 0.56 0.42 0.35 0.28 0.25 0.25 0.26 0.20 0.16 0.12 0.06 0.05 0.02 0.01 0.03 0.04 0.03 0.02 0.00 0.00 0.01 0.01 0.01 0.00 0.00 0.01 0.04 0.09 0.14 0.16 0.17 0.17 0.18
0.08 0.20 0.24 0.31 0.40 0.46 0.49 0.43 0.42 0.39 0.33 0.33 0.29 0.21 0.14 0.08 0.13 0.06 0.06 0.05 0.05 0.03 0.04 0.04 0.05 0.05 0.05 0.08 0.13 0.15 0.18 0.20 0.20 0.17 0.16 0.18 0.21 0.25
0.06 0.11 0.19 0.24 0.32 0.36 0.47 0.49 0.49 0.46 0.42 0.40 0.35 0.29 0.17 0.12 0.12 0.12 0.21 0.18 0.25 0.25 0.30 0.32 0.35 0.35 0.39 0.37 0.27 0.21 0.17 0.19 0.19 0.18 0.20 0.24 0.29 0.30
0.15 0.11 0.14 0.32 0.39 0.42 0.40 0.41 0.47 0.52 0.45 0.35 0.33 0.32 0.21 0.21 0.18 0.23 0.25 0.25 0.18 0.13 0.15 0.19 0.21 0.24 0.22 0.15 0.17 0.12 0.11 0.13 0.15 0.14 0.13 0.14 0.17 0.19
0.21 0.24 0.26 0.21 0.26 0.21 0.43 0.47 0.41 0.48 0.51 0.45 0.39 0.30 0.37 0.48 0.55 0.55 0.53 0.51 0.42 0.30 0.30 0.39 0.47 0.53 0.49 0.44 0.42 0.15 0.07 0.08 0.09 0.10 0.11 0.13 0.14 0.16
0.27 0.23 0.22 0.19 0.32 0.31 0.18 0.29 0.41 0.53 0.65 0.76 0.90 0.96 0.94 0.76 0.70 0.66 0.61 0.65 0.66 0.69 0.66 0.74 0.66 0.60 0.53 0.45 0.58 0.25 0.13 0.13 0.13 0.15 0.17 0.19 0.21 0.24
0.37 0.35 0.33 0.21 0.47 0.39 0.23 0.31 0.46 0.57 0.89 0.87 0.79 0.74 0.66 0.57 0.54 0.58 0.75 0.83 0.80 0.72 0.69 0.68 0.63 0.55 0.49 0.39 0.40 0.44 0.22 0.14 0.12 0.16 0.22 0.28 0.33 0.36
0.47 0.41 0.60 0.47 0.68 0.57 0.46 0.47 0.55 0.66 0.63 0.60 0.59 0.55 0.51 0.47 0.52 0.40 0.44 0.59 0.72 0.76 0.66 0.58 0.56 0.55 0.57 0.51 0.39 0.32 0.25 0.20 0.16 0.14 0.14 0.16 0.18 0.20
0.78 0.67 0.61 0.62 0.47 0.47 0.44 0.37 0.49 0.48 0.54 0.41 0.37 0.37 0.34 0.32 0.33 0.34 0.33 0.39 0.45 0.46 0.52 0.50 0.48 0.48 0.45 0.42 0.36 0.28 0.21 0.18 0.14 0.11 0.09 0.07 0.08 0.09
0.85 0.87 0.91 0.75 0.53 0.47 0.43 0.51 0.53 0.39 0.24 0.20 0.20 0.20 0.17 0.17 0.18 0.20 0.23 0.26 0.27 0.28 0.31 0.30 0.30 0.35 0.36 0.36 0.31 0.25 0.18 0.11 0.08 0.08 0.06 0.04 0.03 0.02
0.81 0.82 0.81 0.79 0.72 0.65 0.61 0.57 0.49 0.40 0.36 0.33 0.32 0.28 0.19 0.12 0.10 0.08 0.09 0.11 0.15 0.20 0.26 0.29 0.29 0.28 0.23 0.17 0.14 0.11 0.07 0.03 0.02 0.02 0.01 0.00 0.00 0.00
0.45 0.45 0.46 0.46 0.47 0.50 0.49 0.47 0.46 0.44 0.39 0.35 0.30 0.26 0.19 0.14 0.12 0.11 0.09 0.09 0.07 0.08 0.07 0.07 0.08 0.08 0.07 0.05 0.04 0.02 0.01 0.00 0.00 0.00 0.00 0.00 0.00 0.00
0.27 0.27 0.26 0.26 0.25 0.25 0.26 0.27 0.27 0.27 0.26 0.26 0.23 0.20 0.15 0.11 0.09 0.07 0.07 0.07 0.07 0.07 0.06 0.04 0.02 0.01 0.01 0.01 0.01 0.00 0.00 0.00 0.00 0.00 0.00 0.00 0.00 0.00
0.07 0.10 0.13 0.14 0.15 0.18 0.19 0.19 0.17 0.16 0.16 0.14 0.12 0.10 0.09 0.08 0.06 0.04 0.03 0.03 0.03 0.02 0.02 0.01 0.00 0.00 0.00 0.00 0.00 0.00 0.00 0.00 0.00 0.00 0.00 0.00 0.00 0.00
0.00 0.01 0.01 0.01 0.01 0.01 0.01 0.02 0.03 0.04 0.04 0.04 0.03 0.02 0.01 0.00 0.00 0.00 0.00 0.00 0.00 0.00 0.00 0.00 0.00 0.00 0.00 0.00 0.00 0.00 0.00 0.00 0.00 0.00 0.00 0.00 0.00 0.00
0.00 0.01 0.00 0.00 0.00 0.00 0.00 0.00 0.00 0.00 0.00 0.00 0.00 0.00 0.00 0.00 0.00 0.00 0.00 0.00 0.00 0.00 0.00 0.00 0.00 0.00 0.00 0.00 0.00 0.00 0.00 0.00 0.00 0.00 0.00 0.00 0.00 0.00
0.00 0.00 0.00 0.00 0.00 0.00 0.00 0.00 0.00 0.00 0.00 0.00 0.00 0.00 0.00 0.00 0.00 0.00 0.00 0.00 0.00 0.00 0.00 0.00 0.00 0.00 0.00 0.00 0.00 0.00 0.00 0.00 0.00 0.00 0.00 0.00 0.00 0.00
0.00 0.00 0.00 0.00 0.00 0.00 0.00 0.00 0.00 0.00 0.00 0.00 0.00 0.00 0.00 0.00 0.00 0.00 0.00 0.00 0.00 0.00 0.00 0.00 0.00 0.00 0.00 0.00 0.00 0.00 0.00 0.00 0.00 0.00 0.00 0.01 0.02 0.02
0.01 0.00 0.00 0.00 0.00 0.00 0.00 0.00 0.00 0.00 0.00 0.00 0.00 0.00 0.00 0.00 0.00 0.00 0.00 0.00 0.00 0.00 0.00 0.00 0.00 0.00 0.00 0.00 0.00 0.00 0.00 0.00 0.00 0.00 0.00 0.00 0.00 0.01

GFSNE_prec_precacc24_123.txt.gz
Total_Precipitation_Accumulation
0.72 0.85 0.75 0.49 0.34 0.26 0.23 0.24 0.29 0.31 0.11 0.03 0.03 0.02 0.02 0.02 0.01 0.01 0.00 0.00 0.00 0.00 0.00 0.00 0.00 0.00 0.00 0.00 0.00 0.00 0.00 0.00 0.00 0.00 0.01 0.05 0.06 0.13
0.52 0.57 0.55 0.46 0.39 0.33 0.29 0.26 0.31 0.33 0.28 0.06 0.06 0.05 0.08 0.08 0.06 0.05 0.01 0.02 0.02 0.01 0.00 0.00 0.00 0.00 0.00 0.00 0.00 0.00 0.00 0.00 0.00 0.00 0.00 0.00 0.00 0.00
0.52 0.61 0.58 0.38 0.35 0.28 0.27 0.26 0.23 0.26 0.26 0.14 0.07 0.09 0.15 0.14 0.13 0.11 0.07 0.06 0.03 0.03 0.03 0.02 0.01 0.01 0.01 0.01 0.00 0.00 0.00 0.00 0.00 0.00 0.00 0.00 0.00 0.00
0.33 0.49 0.70 0.70 0.56 0.41 0.36 0.28 0.23 0.21 0.23 0.22 0.16 0.13 0.12 0.11 0.15 0.16 0.15 0.14 0.11 0.11 0.06 0.04 0.04 0.03 0.01 0.00 0.00 0.00 0.00 0.00 0.00 0.00 0.00 0.00 0.00 0.01
0.21 0.25 0.39 0.55 0.69 0.58 0.44 0.36 0.28 0.25 0.26 0.29 0.23 0.17 0.14 0.12 0.16 0.16 0.19 0.21 0.19 0.14 0.06 0.02 0.01 0.01 0.01 0.01 0.00 0.00 0.01 0.04 0.09 0.14 0.16 0.17 0.17 0.18
0.14 0.24 0.28 0.36 0.46 0.49 0.50 0.42 0.39 0.35 0.28 0.29 0.29 0.23 0.16 0.14 0.18 0.18 0.26 0.28 0.20 0.12 0.10 0.10 0.10 0.08 0.07 0.09 0.13 0.15 0.18 0.20 0.20 0.18 0.16 0.18 0.21 0.25
0.16 0.23 0.33 0.46 0.54 0.55 0.64 0.62 0.55 0.47 0.35 0.31 0.33 0.29 0.20 0.15 0.18 0.18 0.30 0.29 0.34 0.33 0.39 0.42 0.42 0.37 0.39 0.38 0.28 0.21 0.18 0.20 0.20 0.21 0.23 0.27 0.31 0.32
0.55 0.53 0.58 0.79 0.78 0.75 0.67 0.63 0.64 0.64 0.48 0.32 0.30 0.31 0.22 0.21 0.22 0.34 0.41 0.40 0.29 0.19 0.22 0.30 0.30 0.29 0.25 0.18 0.19 0.16 0.16 0.16 0.18 0.17 0.15 0.17 0.21 0.24
0.48 0.48 0.45 0.38 0.37 0.29 0.48 0.51 0.46 0.52 0.52 0.41 0.36 0.27 0.26 0.28 0.39 0.50 0.55 0.48 0.36 0.30 0.39 0.55 0.51 0.49 0.44 0.38 0.36 0.15 0.10 0.10 0.12 0.14 0.16 0.18 0.19 0.18
0.34 0.29 0.26 0.24 0.33 0.30 0.21 0.30 0.39 0.44 0.50 0.47 0.42 0.45 0.41 0.42 0.48 0.47 0.45 0.54 0.57 0.51 0.53 0.63 0.53 0.57 0.48 0.36 0.42 0.21 0.15 0.15 0.15 0.15 0.16 0.17 0.17 0.15
0.41 0.39 0.42 0.33 0.60 0.48 0.28 0.38 0.53 0.58 0.79 0.82 0.77 0.80 0.73 0.62 0.55 0.51 0.64 0.68 0.58 0.42 0.36 0.39 0.40 0.39 0.39 0.34 0.32 0.33 0.17 0.13 0.13 0.12 0.11 0.10 0.08 0.06
0.59 0.57 0.81 0.72 0.96 0.84 0.72 0.74 0.80 0.82 0.71 0.64 0.58 0.53 0.51 0.52 0.61 0.47 0.50 0.65 0.66 0.64 0.53 0.52 0.53 0.47 0.50 0.40 0.25 0.20 0.15 0.15 0.13 0.11 0.10 0.09 0.06 0.02
0.87 0.80 0.84 0.90 0.73 0.72 0.75 0.73 0.86 0.72 0.67 0.51 0.51 0.48 0.42 0.38 0.40 0.44 0.44 0.55 0.60 0.53 0.50 0.50 0.46 0.42 0.40 0.40 0.31 0.24 0.18 0.21 0.17 0.15 0.14 0.10 0.07 0.04
0.95 1.03 1.12 1.01 0.83 0.79 0.78 0.96 0.98 0.74 0.48 0.39 0.32 0.32 0.34 0.33 0.33 0.37 0.41 0.45 0.47 0.47 0.51 0.48 0.38 0.40 0.38 0.39 0.35 0.34 0.30 0.26 0.21 0.18 0.16 0.14 0.12 0.09
0.82 0.84 0.86 0.86 0.83 0.81 0.87 0.92 0.91 0.85 0.82 0.77 0.71 0.63 0.49 0.36 0.30 0.31 0.31 0.34 0.38 0.47 0.51 0.50 0.47 0.50 0.46 0.40 0.37 0.35 0.34 0.31 0.25 0.18 0.12 0.07 0.04 0.03
0.45 0.45 0.46 0.47 0.48 0.53 0.54 0.57 0.62 0.67 0.68 0.69 0.67 0.67 0.62 0.56 0.52 0.51 0.50 0.53 0.49 0.52 0.48 0.46 0.47 0.47 0.49 0.46 0.38 0.37 0.31 0.24 0.19 0.16 0.12 0.10 0.08 0.06
0.27 0.27 0.26 0.25 0.25 0.25 0.26 0.29 0.31 0.33 0.34 0.38 0.38 0.38 0.36 0.34 0.35 0.35 0.36 0.38 0.39 0.45 0.48 0.49 0.45 0.39 0.36 0.36 0.34 0.30 0.26 0.21 0.16 0.12 0.09 0.07 0.04 0.02
0.06 0.10 0.13 0.14 0.15 0.18 0.19 0.19 0.18 0.18 0.19 0.18 0.18 0.18 0.18 0.18 0.17 0.16 0.17 0.19 0.20 0.21 0.21 0.22 0.20 0.19 0.18 0.18 0.17 0.16 0.13 0.09 0.06 0.04 0.03 0.01 0.00 0.00
0.00 0.01 0.01 0.01 0.01 0.01 0.01 0.02 0.03 0.04 0.05 0.05 0.06 0.05 0.04 0.03 0.02 0.03 0.04 0.05 0.05 0.06 0.07 0.08 0.08 0.08 0.09 0.10 0.09 0.06 0.05 0.04 0.02 0.01 0.01 0.00 0.00 0.00
0.00 0.00 0.00 0.00 0.00 0.00 0.00 0.00 0.00 0.00 0.00 0.00 0.00 0.00 0.00 0.00 0.00 0.00 0.00 0.00 0.00 0.00 0.00 0.01 0.01 0.02 0.02 0.02 0.03 0.02 0.01 0.01 0.00 0.00 0.00 0.00 0.00 0.00
0.00 0.00 0.01 0.00 0.00 0.00 0.01 0.01 0.01 0.00 0.00 0.00 0.00 0.00 0.00 0.00 0.00 0.00 0.00 0.00 0.00 0.00 0.00 0.00 0.00 0.00 0.00 0.00 0.00 0.00 0.00 0.00 0.00 0.00 0.00 0.00 0.00 0.00
0.01 0.01 0.01 0.01 0.00 0.01 0.01 0.01 0.01 0.00 0.00 0.00 0.01 0.01 0.00 0.00 0.00 0.00 0.00 0.00 0.00 0.00 0.00 0.00 0.00 0.00 0.00 0.00 0.00 0.00 0.00 0.00 0.00 0.00 0.00 0.00 0.02 0.01
0.01 0.00 0.01 0.00 0.00 0.00 0.00 0.00 0.00 0.01 0.00 0.01 0.00 0.00 0.01 0.00 0.00 0.00 0.00 0.00 0.00 0.00 0.00 0.00 0.00 0.00 0.00 0.00 0.00 0.00 0.00 0.00 0.00 0.00 0.00 0.00 0.00 0.01